Regional Weather Roundup
Issued by NWS

Home | Current Version | Previous Version | Text Only | Print | Product List | Glossary Off
Versions: 1 2 3 4 5 6 7 8 9 10 11 12 13 14 15 16 17 18 19 20 21 22 23 24 25 26 27 28 29 30 31 32 33 34 35 36 37 38 39 40 41 42 43 44 45 46 47 48 49 50

929
ASUS45 KCYS 232010
RWRWY

WYOMING REGIONAL WEATHER ROUNDUP
NATIONAL WEATHER SERVICE CHEYENNE WY
200 PM MDT FRI JUN 23 2017

NOTE:  "FAIR" INDICATES FEW OR NO CLOUDS BELOW 12,000 FEET
WITH NO SIGNIFICANT WEATHER AND/OR OBSTRUCTIONS TO VISIBILITY.

WYZ001-232100-
YELLOWSTONE NATIONAL PARK

CITY           SKY/WX    TMP DP  RH WIND       PRES   REMARKS
LK YELLOWSTONE   N/A     54  31  41 VRB5      30.35F
W YELLOWSTONE  NOT AVBL

$$
WYZ002>013-054>058-071-098>099-232100-
NORTHERN WYOMING

CITY           SKY/WX    TMP DP  RH WIND       PRES   REMARKS
JACKSON        SUNNY     66  25  20 W15       30.25F
CODY           FAIR      64  29  26 VRB7      30.28F
GREYBULL       FAIR      69  22  16 NW10G18   30.22F
WORLAND        FAIR      67  23  19 VRB3      30.24F HAZE
SHERIDAN       PTSUNNY   69  36  29 N9G20     30.25S
BUFFALO        FAIR      65  35  33 N17G25    30.28S
GILLETTE       FAIR      66  32  28 NW14G29   30.23F
NEWCASTLE      FAIR      63  27  25 NW16G33   30.22F

$$
WYZ014>020-022>026-101>103-232100-
CENTRAL WYOMING

CITY           SKY/WX    TMP DP  RH WIND       PRES   REMARKS
BIG PINEY      FAIR      67  35  30 SW8       30.28F
PINEDALE       FAIR      64  32  29 NW6       30.29F
DUBOIS         FAIR      61  32  33 E12G22    30.27F
LANDER         FAIR      65  35  33 VRB7      30.24F
RIVERTON       FAIR      64  30  27 VRB3      30.26F
CASPER         FAIR      67  31  26 N10       30.25F
DOUGLAS        FAIR      67  28  23 NW12      30.25F

$$
WYZ021-027>030-104>119-232100-
SOUTHERN WYOMING

CITY           SKY/WX    TMP DP  RH WIND       PRES   REMARKS
EVANSTON       FAIR      72  27  18 W13G24    30.29S
KEMMERER         N/A     70  30  23 W15G23    30.30F
FORT BRIDGER   FAIR      75  29  18 NW14G24   30.31F
ROCK SPRINGS   FAIR      70  29  21 MISG      30.27F
DIXON          FAIR      75  27  17 SW5       30.26F
RAWLINS        FAIR      70  29  21 NW16G23   30.27F
SARATOGA       FAIR      70  32  24 NW16G24   30.27F
LARAMIE        FAIR      66  33  29 N10G23    30.26F
CHEYENNE       PTSUNNY   62  39  42 S7        30.27S
TORRINGTON     FAIR      70  31  23 NW13G22   30.20F
PINE BLUFFS    CLOUDY    61  37  41 NW5       30.26F

$$




USA.gov is the U.S. government's official web portal to all federal, state and local government web resources and services.